RYR29X LPPT-LPMA

Flight info

Callsign RYR29X
Flight time 1h 31m
Altitude 35000
Route ULVOT DCT GALPA DCT RAKUN
Aircraft B738/M-SDE2E3FGHIRWXY/LB1

Departure

Time 2026-05-04 13:22
Airport Lisbon Humberto Delgado Airport (LPPT)

Arrival

Time 2026-05-04 14:53
Airport Cristiano Ronaldo International Airport (LPMA)
Time Latitude Longitude Altitude Speed Heading
2026-05-04 12:59 38.76473 -9.13637 346 ft 0 kts 170°
2026-05-04 13:14 38.76474 -9.13637 346 ft 2 kts 170°
2026-05-04 13:14 38.76498 -9.13643 357 ft 4 kts 167°
2026-05-04 13:14 38.76522 -9.13650 351 ft 2 kts 170°
2026-05-04 13:14 38.76545 -9.13650 346 ft 4 kts 217°
2026-05-04 13:15 38.76557 -9.13624 355 ft 4 kts 260°
2026-05-04 13:15 38.76559 -9.13604 355 ft 0 kts 259°
2026-05-04 13:18 38.76559 -9.13605 355 ft 1 kts 259°
2026-05-04 13:18 38.76558 -9.13612 353 ft 0 kts 259°
2026-05-04 13:18 38.76558 -9.13615 352 ft 2 kts 259°
2026-05-04 13:18 38.76572 -9.13649 347 ft 8 kts 322°
2026-05-04 13:19 38.76613 -9.13733 350 ft 16 kts 264°
2026-05-04 13:19 38.76588 -9.13889 346 ft 19 kts 256°
2026-05-04 13:19 38.76538 -9.14043 347 ft 19 kts 233°
2026-05-04 13:19 38.76500 -9.14191 345 ft 16 kts 288°
2026-05-04 13:20 38.76518 -9.14242 344 ft 4 kts 293°
2026-05-04 13:20 38.76530 -9.14279 351 ft 5 kts 293°
2026-05-04 13:20 38.76536 -9.14296 347 ft 4 kts 293°
2026-05-04 13:20 38.76584 -9.14398 336 ft 11 kts 328°
2026-05-04 13:21 38.76657 -9.14384 337 ft 0 kts 23°
2026-05-04 13:21 38.76837 -9.14288 339 ft 71 kts 22°
2026-05-04 13:21 38.77491 -9.13939 343 ft 129 kts 22°
2026-05-04 13:21 38.78462 -9.13386 410 ft 170 kts 20°
2026-05-04 13:22 38.79639 -9.12798 750 ft 194 kts
2026-05-04 13:22 38.81012 -9.12412 1173 ft 207 kts 12°
2026-05-04 13:22 38.82209 -9.11594 2201 ft 184 kts 35°
2026-05-04 13:22 38.83166 -9.10637 3240 ft 164 kts 33°
2026-05-04 13:23 38.84085 -9.09790 3979 ft 162 kts 28°
2026-05-04 13:23 38.85122 -9.08969 4254 ft 189 kts 28°
2026-05-04 13:23 38.86303 -9.08060 4470 ft 209 kts 27°
2026-05-04 13:23 38.87491 -9.06845 4615 ft 233 kts 48°
2026-05-04 13:24 38.88250 -9.04931 4893 ft 250 kts 73°
2026-05-04 13:24 38.88171 -9.02668 5298 ft 258 kts 104°
2026-05-04 13:24 38.87462 -9.00544 5856 ft 259 kts 117°
2026-05-04 13:25 38.84493 -8.97925 6550 ft 281 kts 182°
2026-05-04 13:25 38.82630 -8.98496 7310 ft 276 kts 209°
2026-05-04 13:25 38.81094 -8.99951 8016 ft 275 kts 228°
2026-05-04 13:25 38.79773 -9.01746 8771 ft 278 kts 231°
2026-05-04 13:26 38.78484 -9.03617 9671 ft 281 kts 232°
2026-05-04 13:26 38.77192 -9.05521 10427 ft 286 kts 232°
2026-05-04 13:26 38.75839 -9.07521 10655 ft 309 kts 232°
2026-05-04 13:26 38.74394 -9.09643 10854 ft 331 kts 231°
2026-05-04 13:27 38.72844 -9.11900 11380 ft 340 kts 231°
2026-05-04 13:27 38.71267 -9.14178 12129 ft 343 kts 231°
2026-05-04 13:27 38.69675 -9.16466 12997 ft 343 kts 231°
2026-05-04 13:27 38.68080 -9.18750 13819 ft 346 kts 231°
2026-05-04 13:28 38.66467 -9.21055 14560 ft 348 kts 232°
2026-05-04 13:28 38.64840 -9.23377 15302 ft 351 kts 232°
2026-05-04 13:28 38.63202 -9.25713 16056 ft 354 kts 232°
2026-05-04 13:28 38.61551 -9.28064 16800 ft 357 kts 232°
2026-05-04 13:29 38.59882 -9.30440 17521 ft 360 kts 232°
2026-05-04 13:29 38.58222 -9.32801 18225 ft 363 kts 232°
2026-05-04 13:29 38.56522 -9.35215 18863 ft 366 kts 232°
2026-05-04 13:29 38.54788 -9.37677 19477 ft 370 kts 232°
2026-05-04 13:30 38.53085 -9.40093 20091 ft 372 kts 232°
2026-05-04 13:30 38.51344 -9.42560 20696 ft 375 kts 232°
2026-05-04 13:30 38.49590 -9.45045 21275 ft 378 kts 232°
2026-05-04 13:30 38.47818 -9.47552 21823 ft 382 kts 232°
2026-05-04 13:31 38.46018 -9.50127 22372 ft 385 kts 233°
2026-05-04 13:31 38.44292 -9.52693 22951 ft 387 kts 234°
2026-05-04 13:31 38.42535 -9.55313 23527 ft 390 kts 233°
2026-05-04 13:31 38.40750 -9.57943 24006 ft 393 kts 233°
2026-05-04 13:32 38.38938 -9.60573 24469 ft 396 kts 233°
2026-05-04 13:32 38.37103 -9.63203 24924 ft 398 kts 233°
2026-05-04 13:32 38.35250 -9.65835 25377 ft 400 kts 232°
2026-05-04 13:32 38.33377 -9.68480 25818 ft 403 kts 232°
2026-05-04 13:33 38.31489 -9.71134 26257 ft 405 kts 232°
2026-05-04 13:33 38.29588 -9.73801 26686 ft 407 kts 232°
2026-05-04 13:33 38.27679 -9.76476 27099 ft 409 kts 232°
2026-05-04 13:33 38.25758 -9.79165 27498 ft 412 kts 232°
2026-05-04 13:34 38.23824 -9.81868 27864 ft 414 kts 232°
2026-05-04 13:34 38.21878 -9.84587 28227 ft 417 kts 232°
2026-05-04 13:34 38.19943 -9.87290 28547 ft 420 kts 232°
2026-05-04 13:34 38.17970 -9.90042 28924 ft 422 kts 232°
2026-05-04 13:35 38.15988 -9.92805 29372 ft 422 kts 232°
2026-05-04 13:35 38.12051 -9.98277 30476 ft 417 kts 232°
2026-05-04 13:35 38.10100 -10.00987 30916 ft 415 kts 233°
2026-05-04 13:36 38.08147 -10.03695 31285 ft 415 kts 233°
2026-05-04 13:36 38.06193 -10.06399 31667 ft 415 kts 233°
2026-05-04 13:36 38.04247 -10.09091 32102 ft 413 kts 233°
2026-05-04 13:36 38.02306 -10.11774 32533 ft 411 kts 233°
2026-05-04 13:37 38.00372 -10.14448 32926 ft 411 kts 233°
2026-05-04 13:37 37.98438 -10.17123 33328 ft 410 kts 233°
2026-05-04 13:37 37.96516 -10.19779 33724 ft 409 kts 233°
2026-05-04 13:37 37.95243 -10.21536 33953 ft 408 kts 233°
2026-05-04 13:38 37.93324 -10.24185 34246 ft 409 kts 233°
2026-05-04 13:38 37.91403 -10.26835 34562 ft 408 kts 233°
2026-05-04 13:38 37.89487 -10.29474 34909 ft 406 kts 233°
2026-05-04 13:38 37.87575 -10.32107 35130 ft 408 kts 233°
2026-05-04 13:39 37.85643 -10.34768 35122 ft 412 kts 233°
2026-05-04 13:39 37.81761 -10.40103 35131 ft 410 kts 233°
2026-05-04 13:40 37.77936 -10.45343 35135 ft 404 kts 233°
2026-05-04 13:40 37.74123 -10.50567 35137 ft 405 kts 233°
2026-05-04 13:41 37.70325 -10.55763 35129 ft 405 kts 233°
2026-05-04 13:41 37.66496 -10.60989 35135 ft 405 kts 233°
2026-05-04 13:42 37.60743 -10.68827 35143 ft 406 kts 233°
2026-05-04 13:42 37.56896 -10.74057 35146 ft 407 kts 233°
2026-05-04 13:43 37.53064 -10.79258 35147 ft 407 kts 233°
2026-05-04 13:43 37.49207 -10.84484 35142 ft 407 kts 233°
2026-05-04 13:44 37.45340 -10.89715 35147 ft 407 kts 233°
2026-05-04 13:44 37.41480 -10.94928 35132 ft 407 kts 233°
2026-05-04 13:45 37.37623 -11.00128 35136 ft 406 kts 233°
2026-05-04 13:45 37.33771 -11.05314 35147 ft 406 kts 232°
2026-05-04 13:46 37.29917 -11.10494 35146 ft 406 kts 232°
2026-05-04 13:46 37.26080 -11.15644 35152 ft 406 kts 232°
2026-05-04 13:47 37.22215 -11.20822 35153 ft 405 kts 232°
2026-05-04 13:47 37.18354 -11.25987 35155 ft 405 kts 232°
2026-05-04 13:48 37.14497 -11.31137 35145 ft 404 kts 232°
2026-05-04 13:48 37.10646 -11.36272 35146 ft 404 kts 232°
2026-05-04 13:49 37.06793 -11.41401 35152 ft 404 kts 232°
2026-05-04 13:49 37.02965 -11.46490 35152 ft 404 kts 232°
2026-05-04 13:50 36.99110 -11.51605 35153 ft 404 kts 232°
2026-05-04 13:50 36.95248 -11.56723 35152 ft 404 kts 232°
2026-05-04 13:51 36.91385 -11.61833 35152 ft 404 kts 232°
2026-05-04 13:51 36.87517 -11.66942 35144 ft 404 kts 231°
2026-05-04 13:52 36.81739 -11.74557 35156 ft 404 kts 231°
2026-05-04 13:53 36.77868 -11.79650 35157 ft 404 kts 231°
2026-05-04 13:53 36.73995 -11.84737 35158 ft 404 kts 231°
2026-05-04 13:54 36.68181 -11.92359 35158 ft 404 kts 231°
2026-05-04 13:55 36.62358 -11.99975 35133 ft 404 kts 231°
2026-05-04 13:55 36.56563 -12.07537 35150 ft 404 kts 231°
2026-05-04 13:56 36.52682 -12.12591 35159 ft 404 kts 231°
2026-05-04 13:57 36.46851 -12.20170 35155 ft 404 kts 231°
2026-05-04 13:58 36.39089 -12.30231 35154 ft 404 kts 231°
2026-05-04 13:58 36.33250 -12.37779 35154 ft 403 kts 231°
2026-05-04 13:59 36.29366 -12.42789 35155 ft 402 kts 231°
2026-05-04 14:00 36.23569 -12.50253 35159 ft 399 kts 231°
2026-05-04 14:00 36.17797 -12.57670 35165 ft 397 kts 231°
2026-05-04 14:01 36.13958 -12.62594 35164 ft 397 kts 231°
2026-05-04 14:02 36.08236 -12.69919 35164 ft 396 kts 231°
2026-05-04 14:02 36.04407 -12.74811 35162 ft 395 kts 232°
2026-05-04 14:03 36.00583 -12.79690 35162 ft 394 kts 232°
2026-05-04 14:03 35.96766 -12.84551 35167 ft 394 kts 232°
2026-05-04 14:04 35.91038 -12.91835 35162 ft 394 kts 231°
2026-05-04 14:04 35.87215 -12.96688 35169 ft 394 kts 231°
2026-05-04 14:05 35.81473 -13.03963 35162 ft 394 kts 231°
2026-05-04 14:06 35.77640 -13.08809 35143 ft 394 kts 231°
2026-05-04 14:06 35.73836 -13.13613 35146 ft 394 kts 231°
2026-05-04 14:07 35.70004 -13.18444 35160 ft 394 kts 231°
2026-05-04 14:07 35.66168 -13.23273 35168 ft 394 kts 231°
2026-05-04 14:08 35.62331 -13.28097 35166 ft 395 kts 231°
2026-05-04 14:08 35.58485 -13.32925 35167 ft 395 kts 231°
2026-05-04 14:09 35.52709 -13.40162 35167 ft 396 kts 231°
2026-05-04 14:10 35.46920 -13.47399 35152 ft 396 kts 231°
2026-05-04 14:10 35.43061 -13.52216 35157 ft 396 kts 230°
2026-05-04 14:11 35.39198 -13.57029 35161 ft 396 kts 230°
2026-05-04 14:11 35.33397 -13.64246 35168 ft 396 kts 230°
2026-05-04 14:12 35.29543 -13.69031 35168 ft 397 kts 230°
2026-05-04 14:13 35.23715 -13.76255 35166 ft 397 kts 230°
2026-05-04 14:13 35.19823 -13.81070 35173 ft 397 kts 230°
2026-05-04 14:14 35.15956 -13.85847 35164 ft 397 kts 230°
2026-05-04 14:14 35.10115 -13.93050 35162 ft 398 kts 230°
2026-05-04 14:15 35.02321 -14.02637 35173 ft 397 kts 230°
2026-05-04 14:16 34.96491 -14.09790 35169 ft 397 kts 230°
2026-05-04 14:17 34.90641 -14.16952 35153 ft 397 kts 230°
2026-05-04 14:18 34.84791 -14.24099 35167 ft 396 kts 230°
2026-05-04 14:19 34.77030 -14.33558 35166 ft 396 kts 230°
2026-05-04 14:19 34.73139 -14.38290 35163 ft 396 kts 230°
2026-05-04 14:20 34.69246 -14.43017 35163 ft 395 kts 230°
2026-05-04 14:20 34.65347 -14.47746 35161 ft 395 kts 230°
2026-05-04 14:21 34.59509 -14.54814 35157 ft 395 kts 229°
2026-05-04 14:21 34.55609 -14.59527 35157 ft 395 kts 229°
2026-05-04 14:22 34.51712 -14.64230 35162 ft 396 kts 229°
2026-05-04 14:22 34.48464 -14.68145 35161 ft 396 kts 229°
2026-05-04 14:23 34.42594 -14.75208 35158 ft 397 kts 229°
2026-05-04 14:24 34.38037 -14.80678 35160 ft 397 kts 228°
2026-05-04 14:24 34.34739 -14.84624 35160 ft 397 kts 228°
2026-05-04 14:25 34.30829 -14.89300 35143 ft 397 kts 228°
2026-05-04 14:25 34.24920 -14.96365 34841 ft 399 kts 227°
2026-05-04 14:26 34.22957 -14.98707 34511 ft 393 kts 227°
2026-05-04 14:26 34.21021 -15.01016 34104 ft 389 kts 228°
2026-05-04 14:26 34.19103 -15.03302 33657 ft 386 kts 228°
2026-05-04 14:26 34.17203 -15.05567 33221 ft 382 kts 228°
2026-05-04 14:27 34.15314 -15.07817 32759 ft 380 kts 228°
2026-05-04 14:27 34.13457 -15.10027 32674 ft 367 kts 228°
2026-05-04 14:27 34.09846 -15.14319 32280 ft 366 kts 228°
2026-05-04 14:28 34.08029 -15.16481 31654 ft 369 kts 228°
2026-05-04 14:28 34.06191 -15.18667 31015 ft 373 kts 228°
2026-05-04 14:28 34.04338 -15.20869 30511 ft 374 kts 228°
2026-05-04 14:28 34.02490 -15.23061 30030 ft 373 kts 228°
2026-05-04 14:29 33.98832 -15.27393 29089 ft 368 kts 228°
2026-05-04 14:29 33.95182 -15.31709 28181 ft 363 kts 228°
2026-05-04 14:30 33.93412 -15.33800 27865 ft 358 kts 228°
2026-05-04 14:30 33.91645 -15.35886 27502 ft 354 kts 228°
2026-05-04 14:30 33.88191 -15.39959 26907 ft 344 kts 227°
2026-05-04 14:31 33.86471 -15.41982 26492 ft 343 kts 227°
2026-05-04 14:31 33.83055 -15.45998 25665 ft 342 kts 227°
2026-05-04 14:32 33.79661 -15.49987 24899 ft 340 kts 227°
2026-05-04 14:32 33.77960 -15.51988 24322 ft 345 kts 227°
2026-05-04 14:32 33.76239 -15.54012 23851 ft 347 kts 227°
2026-05-04 14:32 33.74539 -15.56009 23465 ft 345 kts 227°
2026-05-04 14:33 33.72831 -15.58012 22973 ft 343 kts 227°
2026-05-04 14:33 33.71088 -15.60059 22037 ft 356 kts 227°
2026-05-04 14:33 33.69325 -15.62128 21569 ft 355 kts 226°
2026-05-04 14:33 33.67578 -15.64174 21182 ft 347 kts 226°
2026-05-04 14:34 33.65856 -15.66188 20784 ft 344 kts 226°
2026-05-04 14:34 33.64147 -15.68188 20406 ft 342 kts 226°
2026-05-04 14:34 33.62441 -15.70183 20024 ft 340 kts 226°
2026-05-04 14:34 33.60762 -15.72145 19902 ft 330 kts 226°
2026-05-04 14:35 33.59115 -15.74064 19495 ft 330 kts 226°
2026-05-04 14:35 33.57472 -15.75978 19151 ft 328 kts 226°
2026-05-04 14:35 33.55840 -15.77879 18791 ft 327 kts 226°
2026-05-04 14:35 33.54212 -15.79775 18426 ft 325 kts 226°
2026-05-04 14:36 33.52590 -15.81665 18004 ft 325 kts 226°
2026-05-04 14:36 33.50977 -15.83543 17621 ft 323 kts 226°
2026-05-04 14:36 33.49368 -15.85418 17251 ft 321 kts 226°
2026-05-04 14:36 33.47791 -15.87254 16882 ft 319 kts 226°
2026-05-04 14:37 33.46202 -15.89104 16516 ft 317 kts 226°
2026-05-04 14:37 33.44621 -15.90942 16159 ft 316 kts 226°
2026-05-04 14:37 33.43048 -15.92770 15789 ft 315 kts 225°
2026-05-04 14:37 33.41474 -15.94599 15442 ft 315 kts 225°
2026-05-04 14:38 33.39900 -15.96426 15074 ft 316 kts 225°
2026-05-04 14:38 33.38322 -15.98258 14705 ft 317 kts 225°
2026-05-04 14:38 33.36738 -16.00096 14343 ft 317 kts 225°
2026-05-04 14:38 33.35148 -16.01940 13963 ft 318 kts 225°
2026-05-04 14:39 33.33574 -16.03764 13781 ft 311 kts 225°
2026-05-04 14:39 33.32047 -16.05530 13394 ft 303 kts 225°
2026-05-04 14:39 33.30537 -16.07278 12771 ft 303 kts 225°
2026-05-04 14:40 33.27529 -16.10758 11701 ft 298 kts 225°
2026-05-04 14:40 33.26046 -16.12472 11234 ft 295 kts 225°
2026-05-04 14:40 33.24570 -16.14178 10877 ft 295 kts 225°
2026-05-04 14:40 33.23110 -16.15863 10557 ft 294 kts 225°
2026-05-04 14:41 33.21652 -16.17547 10364 ft 288 kts 225°
2026-05-04 14:41 33.20231 -16.19186 10226 ft 280 kts 225°
2026-05-04 14:41 33.17478 -16.22359 9777 ft 273 kts 225°
2026-05-04 14:42 33.14761 -16.25489 9212 ft 269 kts 224°
2026-05-04 14:42 33.13414 -16.27039 8936 ft 268 kts 225°
2026-05-04 14:42 33.12075 -16.28579 8662 ft 266 kts 225°
2026-05-04 14:43 33.10744 -16.30110 8387 ft 264 kts 225°
2026-05-04 14:43 33.09425 -16.31626 8117 ft 263 kts 224°
2026-05-04 14:43 33.08113 -16.33133 7858 ft 261 kts 224°
2026-05-04 14:43 33.06821 -16.34618 7587 ft 261 kts 224°
2026-05-04 14:44 33.05516 -16.36116 7322 ft 260 kts 224°
2026-05-04 14:44 33.04209 -16.37617 7047 ft 260 kts 224°
2026-05-04 14:44 33.02902 -16.39116 6773 ft 261 kts 224°
2026-05-04 14:44 33.01594 -16.40616 6496 ft 261 kts 224°
2026-05-04 14:45 33.00288 -16.42113 6213 ft 261 kts 224°
2026-05-04 14:45 32.98983 -16.43608 5947 ft 260 kts 224°
2026-05-04 14:45 32.97667 -16.45113 5702 ft 263 kts 223°
2026-05-04 14:45 32.96357 -16.46611 5403 ft 266 kts 224°
2026-05-04 14:46 32.95040 -16.48180 5078 ft 268 kts 225°
2026-05-04 14:46 32.93689 -16.49709 4767 ft 269 kts 223°
2026-05-04 14:46 32.92330 -16.51235 4414 ft 266 kts 223°
2026-05-04 14:46 32.91005 -16.52738 4139 ft 259 kts 223°
2026-05-04 14:47 32.89732 -16.54193 4067 ft 248 kts 223°
2026-05-04 14:47 32.88515 -16.55590 3992 ft 237 kts 223°
2026-05-04 14:47 32.87362 -16.56896 3852 ft 221 kts 223°
2026-05-04 14:47 32.86297 -16.58110 3714 ft 203 kts 223°
2026-05-04 14:48 32.85325 -16.59220 3566 ft 185 kts 223°
2026-05-04 14:48 32.84457 -16.60237 3454 ft 165 kts 222°
2026-05-04 14:48 32.83684 -16.61147 3447 ft 152 kts 223°
2026-05-04 14:48 32.82941 -16.62022 3324 ft 146 kts 223°
2026-05-04 14:49 32.82235 -16.62852 3160 ft 140 kts 223°
2026-05-04 14:49 32.81538 -16.63675 3017 ft 141 kts 223°
2026-05-04 14:49 32.80845 -16.64492 2861 ft 138 kts 223°
2026-05-04 14:49 32.80160 -16.65294 2723 ft 139 kts 222°
2026-05-04 14:50 32.79475 -16.66095 2569 ft 137 kts 222°
2026-05-04 14:50 32.78793 -16.66894 2420 ft 139 kts 222°
2026-05-04 14:50 32.78107 -16.67697 2228 ft 137 kts 222°
2026-05-04 14:50 32.77440 -16.68478 2053 ft 136 kts 222°
2026-05-04 14:51 32.76766 -16.69268 1882 ft 136 kts 223°
2026-05-04 14:51 32.76091 -16.70060 1689 ft 136 kts 224°
2026-05-04 14:51 32.75401 -16.70853 1478 ft 139 kts 221°
2026-05-04 14:51 32.74709 -16.71660 1300 ft 140 kts 224°
2026-05-04 14:52 32.74035 -16.72487 1157 ft 138 kts 224°
2026-05-04 14:52 32.73350 -16.73305 886 ft 142 kts 219°
2026-05-04 14:52 32.72630 -16.74116 715 ft 142 kts 221°
2026-05-04 14:52 32.71902 -16.74954 535 ft 146 kts 221°
2026-05-04 14:53 32.71191 -16.75804 337 ft 145 kts 221°
2026-05-04 14:53 32.70479 -16.76635 206 ft 144 kts 221°
2026-05-04 14:53 32.69790 -16.77444 175 ft 121 kts 225°
2026-05-04 14:53 32.69365 -16.77947 175 ft 49 kts 226°
2026-05-04 14:54 32.69289 -16.78041 175 ft 1 kts 245°
2026-05-04 14:54 32.69277 -16.78034 175 ft 7 kts 81°
2026-05-04 14:54 32.69288 -16.77927 175 ft 13 kts 89°
2026-05-04 14:54 32.69295 -16.77865 175 ft 0 kts 70°
2026-05-04 14:56 32.69307 -16.77842 175 ft 8 kts 49°
2026-05-04 14:56 32.69346 -16.77788 175 ft 14 kts 49°
2026-05-04 14:56 32.69436 -16.77678 175 ft 12 kts 45°
2026-05-04 14:56 32.69490 -16.77609 175 ft 3 kts 46°
2026-05-04 14:57 32.69491 -16.77609 175 ft 0 kts 46°
2026-05-04 14:57 32.69494 -16.77604 175 ft 0 kts 45°
2026-05-04 14:57 32.69495 -16.77603 175 ft 2 kts 45°
2026-05-04 14:57 32.69508 -16.77572 175 ft 4 kts 112°
2026-05-04 14:58 32.69489 -16.77545 175 ft 4 kts 132°
2026-05-04 14:58 32.69474 -16.77528 175 ft 3 kts 139°
2026-05-04 14:58 32.69469 -16.77523 175 ft 0 kts 139°
2026-05-04 14:58 32.69468 -16.77523 175 ft 0 kts 139°